Location: Congrier
(47.8099°N, 1.1170°W)
Time: 00:25:08
(UTC+00:00)

CZ-6A DEB - Pass Details

Date: 23 February 2024
Orbit: 823 x 838 km, 98.8° (Epoch: 24 April)

Event Time Altitude Azimuth Distance (km) Brightness Sun altitude
Rises 05:11:18 0° 29° (NNE) 3,397 ? -18.6°
Reaches altitude 10° 05:14:41 10° 51° (NE) 2,453 ? -18.0°
Maximum altitude 05:17:55 16° 88° (E) 2,057 ? -17.5°
Drops below altitude 10° 05:21:08 10° 125° (SE) 2,435 ? -16.9°
Sets 05:24:28 0° 147° (SSE) 3,359 ? -16.4°
